Location: Maccacari
(45.1333°N, 11.1333°E)
Time: 21:18:04
(UTC+00:00)

X-37B - Visible Passes

Search period start: 30 November 2020 00:00
Search period end: 10 December 2020 00:00
Orbit: 384 x 390 km, 45.0° (Epoch: 26 November)

Date Brightness Start Highest point End Pass type
(mag) Time Alt. Az. Time Alt. Az. Time Alt. Az.
30 Nov 1.3 16:48:32 10° SW 16:51:35 43° SSE 16:53:08 23° E visible
30 Nov 3.9 18:24:54 10° W 18:25:25 14° W 18:25:25 14° W visible
01 Dec 0.5 17:26:21 10° WSW 17:29:28 79° SSW 17:29:28 79° SSW visible
02 Dec 0.8 16:27:50 10° WSW 16:30:58 62° SSE 16:33:31 15° E visible
02 Dec 3.0 18:04:23 10° W 18:05:47 24° W 18:05:47 24° W visible
03 Dec 0.5 17:05:48 10° W 17:08:59 90° S 17:09:50 46° E visible
04 Dec 0.6 16:07:14 10° WSW 16:10:25 80° S 16:13:36 10° E visible
04 Dec 1.7 17:43:52 10° W 17:46:11 45° W 17:46:11 45° W visible
05 Dec 0.5 16:45:17 10° W 16:48:28 89° SE 16:50:19 23° E visible
05 Dec 3.8 18:21:57 10° W 18:22:35 15° W 18:22:35 15° W visible
06 Dec 0.8 17:23:20 10° W 17:26:29 61° SSW 17:26:47 57° SSE visible
07 Dec 0.7 16:24:45 10° W 16:27:55 79° SSW 16:31:05 10° ESE visible
07 Dec 2.9 18:01:33 10° W 18:03:22 23° WSW 18:03:22 23° WSW visible
08 Dec 1.7 17:02:50 10° W 17:05:52 42° SSW 17:07:49 19° SE visible
09 Dec 1.1 16:04:14 10° W 16:07:22 61° SSW 16:10:31 10° ESE visible
09 Dec 3.1 17:41:23 10° WSW 17:43:36 17° SSW 17:44:45 15° S visible
